Home > Weather > Knarrevik/Straume > Past weeks

Flag for Norway Past Weather in Knarrevik/Straume, Norway — Yesterday and Last 2 Weeks

Now
58 °F

Partly sunny.


Feels Like: 56 °F
Forecast: 48 / 65 °F
Wind: 7 mph from South

Location: Bergen / Flesland

Current Time: Jun 28, 2016 at 1:32:53 PM

Latest Report: Jun 28, 2016 at 12:00 PM


Visibility: 14 mi

Pressure: 29.89 "Hg

Humidity: 73%

Dew Point: 49 °F

Location of Knarrevik/StraumeLocation

Past Weather in Knarrevik/Straume — Graph

°F

Knarrevik/Straume Temperature Yesterday

Maximum temperature yesterday: 56 °F (at 12:00 AM)
Minimum temperature yesterday: 51 °F (at 6:00 AM)
Average temperature yesterday: 53 °F

High & Low Weather Summary for the Past Weeks

 TemperatureHumidityPressure
High70 °F (Jun 15, 12:00 PM)97% (Jun 25, 2:00 AM)30.14 "Hg (Jun 25, 2:00 AM)
Low45 °F (Jun 20, 2:00 AM)32% (Jun 14, 2:00 PM)29.57 "Hg (Jun 15, 6:00 AM)
Average57 °F79%29.83 "Hg
* Reported Jun 13 12:00 PM — Jun 28 12:00 PM, Knarrevik/Straume, Weather by CustomWeather, © 2016

Note: Actual official high and low records may vary slightly from our data, if they occured in-between our weather recording intervals... More about our weather records

Advertising

Knarrevik/Straume Weather History for the Previous 24 Hours

Scroll right to see more
 ConditionsComfort  
Time TempWeatherWind HumidityBarometerVisibility
12:00 PM
Tue, Jun 28
58 °FPartly sunny.7 mph73%29.89 "Hg14 mi
11:00 AM56 °FOvercast.6 mph80%29.88 "Hg22 mi
10:00 AM55 °FPartly sunny.6 mph82%29.87 "Hg22 mi
9:00 AM54 °FOvercast.5 mph93%29.87 "Hg14 mi
8:00 AM51 °FLight rain. Low clouds.2 mph93%29.86 "Hg3 mi
7:00 AM51 °FOvercast.2 mph88%29.86 "Hg28 mi
6:00 AM51 °FRain showers. Overcast.3 mph95%29.86 "Hg10 mi
5:00 AM50 °FPartly sunny.2 mph96%29.86 "Hg12 mi
4:00 AM49 °FPassing clouds.2 mph95%29.85 "Hg16 mi
3:00 AM50 °FRain showers. Overcast.3 mph94%29.85 "Hg16 mi
2:00 AM50 °FRain showers. Overcast.1 mph93%29.85 "Hg11 mi
1:00 AM50 °FPassing clouds.1 mph92%29.85 "Hg14 mi
12:00 AM52 °FPassing clouds.3 mph85%29.84 "Hg16 mi
11:00 PM
Mon, Jun 27
53 °FOvercast.3 mph86%29.82 "Hg12 mi
10:00 PM52 °FDrizzle. Overcast.3 mph90%29.80 "Hg12 mi
9:00 PM51 °FRain showers. Overcast.3 mph94%29.79 "Hg5 mi
8:00 PM52 °FRain showers. Overcast.3 mph93%29.77 "Hg3 mi
7:00 PM54 °FOvercast.5 mph89%29.73 "Hg25 mi
6:00 PM54 °FLow clouds.8 mph90%29.70 "Hg22 mi
5:00 PM55 °FLight rain. Overcast.6 mph94%29.67 "Hg5 mi
4:00 PM55 °FDrizzle. Low clouds.3 mph93%29.66 "Hg4 mi
3:00 PM55 °FLight rain. Overcast.7 mph91%29.67 "Hg10 mi
2:00 PM56 °FLight rain. Overcast.7 mph93%29.67 "Hg14 mi
1:00 PM55 °FDrizzle. Overcast.6 mph92%29.67 "Hg12 mi
Weather by CustomWeather, © 2016

See weather overviewHow to use our weather pages